Location: Oshawa
(43.9000°N, 78.8670°W)
Time: 06:16:04
(UTC-05:00)

CARTOSAT-1 - Pass Details

Date: 21 August 2017
Orbit: 618 x 619 km, 97.8° (Epoch: 23 November)

Event Time Altitude Azimuth Distance (km) Brightness Sun altitude
Exits shadow 00:28:23 13° 290° (WNW) 1,771 6.2 -32.9°
Drops below altitude 10° 00:29:33 10° 305° (NW) 1,991 6.7 -32.9°
Sets 00:32:37 0° 329° (NNW) 2,903 8.0 -33.1°
